カタログに戻る

THORAD AGENA D DEB

運用中LEO
NORAD 42505·DEBRIS·🇺🇸 United States

打ち上げ Apr 8, 1970 から Vandenberg Space Force Base

Loading…

次のパス (今後24時間)

TLE

最新Source: Space-Track

元期: Sep 14, 2026, 02:57 UTC

1 42505U 70025RK  26257.12320782  .00000361  00000-0  54620-3 0  9997
2 42505 100.1810 215.9770 0044300 333.7674  87.7090 13.59879930635362

AllMySatでTHORAD AGENA D DEBをリアルタイム追跡

Download on the App Store